• In Belarus
  • List of Countries
  • For 7 days
  • Water Temperature
  • Satellite Maps
  • Weather Map
  • Weather Widgets
  • user-avatar
    Login

    Hourly Weather Polesskoe

    Today, 22 September, Saturday

    Time Temperature Precipitation Wind Pressure Humidity
    00:00 +18°C° 0 mm 3 mps 751 mmHg 63%
    01:00 +17°C° 0 mm 3 mps 751 mmHg 63%
    02:00 +17°C° 0 mm 3 mps 751 mmHg 64%
    03:00 +17°C° 0 mm 3 mps 750 mmHg 63%
    04:00 +17°C° 0 mm 3 mps 750 mmHg 63%
    05:00 +17°C° 0 mm 3 mps 750 mmHg 63%
    06:00 +18°C° 0 mm 4 mps 749 mmHg 59%
    07:00 +19°C° 0 mm 4 mps 749 mmHg 56%
    08:00 +20°C° 0 mm 5 mps 749 mmHg 52%
    09:00 +22°C° 0 mm 5 mps 749 mmHg 49%
    10:00 +23°C° 0 mm 5 mps 749 mmHg 46%
    11:00 +26°C° 0 mm 5 mps 749 mmHg 42%
    12:00 +26°C° 0 mm 5 mps 749 mmHg 43%
    13:00 +26°C° 0 mm 5 mps 749 mmHg 44%
    14:00 +27°C° 0 mm 5 mps 749 mmHg 45%
    15:00 +23°C° 0 mm 5 mps 749 mmHg 53%
    16:00 +20°C° 0 mm 6 mps 749 mmHg 61%
    17:00 +16°C° 0 mm 6 mps 749 mmHg 69%
    18:00 +15°C° 0.2 mm 6 mps 750 mmHg 72%
    19:00 +14°C° 0.2 mm 5 mps 750 mmHg 74%
    20:00 +12°C° 0.2 mm 5 mps 751 mmHg 77%
    21:00 +12°C° 1.4 mm 4 mps 751 mmHg 81%
    22:00 +11°C° 1.4 mm 3 mps 751 mmHg 84%
    23:00 +10°C° 1.4 mm 3 mps 751 mmHg 88%

    Tomorrow, 23 September, Sunday

    Time Temperature Precipitation Wind Pressure Humidity
    00:00 +10°C° 0.6 mm 3 mps 751 mmHg 90%
    01:00 +10°C° 0.6 mm 2 mps 752 mmHg 92%
    02:00 +10°C° 0.6 mm 2 mps 752 mmHg 93%
    03:00 +10°C° 0 mm 2 mps 751 mmHg 94%
    04:00 +9°C° 0 mm 3 mps 751 mmHg 96%
    05:00 +9°C° 0 mm 3 mps 751 mmHg 97%
    06:00 +10°C° 0 mm 3 mps 751 mmHg 94%
    07:00 +10°C° 0 mm 3 mps 751 mmHg 90%
    08:00 +11°C° 0 mm 3 mps 751 mmHg 87%
    09:00 +12°C° 0 mm 4 mps 751 mmHg 77%
    10:00 +14°C° 0 mm 4 mps 751 mmHg 67%
    11:00 +17°C° 0 mm 4 mps 751 mmHg 56%
    12:00 +16°C° 0 mm 5 mps 751 mmHg 52%
    13:00 +17°C° 0 mm 5 mps 750 mmHg 48%
    14:00 +19°C° 0 mm 5 mps 750 mmHg 43%
    15:00 +18°C° 0 mm 4 mps 750 mmHg 46%
    16:00 +18°C° 0 mm 3 mps 750 mmHg 49%
    17:00 +17°C° 0 mm 3 mps 750 mmHg 52%
    18:00 +16°C° 0 mm 3 mps 750 mmHg 57%
    19:00 +14°C° 0 mm 3 mps 750 mmHg 62%
    20:00 +12°C° 0 mm 3 mps 750 mmHg 67%
    21:00 +12°C° 0 mm 3 mps 749 mmHg 69%
    22:00 +12°C° 0 mm 3 mps 749 mmHg 71%
    23:00 +11°C° 0 mm 3 mps 749 mmHg 72%

    Day after tomorrow, 24 September, Monday

    Time Temperature Precipitation Wind Pressure Humidity
    00:00 +11°C° 0 mm 3 mps 748 mmHg 72%
    01:00 +12°C° 0 mm 3 mps 748 mmHg 72%
    02:00 +12°C° 0 mm 3 mps 747 mmHg 72%
    03:00 +12°C° 0.2 mm 4 mps 746 mmHg 70%
    04:00 +12°C° 0.2 mm 5 mps 744 mmHg 69%
    05:00 +13°C° 0.2 mm 5 mps 743 mmHg 67%
    06:00 +13°C° 1 mm 6 mps 742 mmHg 70%
    07:00 +12°C° 1 mm 7 mps 741 mmHg 72%
    08:00 +12°C° 1 mm 8 mps 740 mmHg 75%
    09:00 +13°C° 0.6 mm 8 mps 738 mmHg 77%
    10:00 +13°C° 0.6 mm 8 mps 737 mmHg 80%
    11:00 +15°C° 0.6 mm 8 mps 736 mmHg 83%
    12:00 +14°C° 0.1 mm 10 mps 736 mmHg 77%
    13:00 +14°C° 0.1 mm 11 mps 736 mmHg 72%
    14:00 +14°C° 0.1 mm 12 mps 735 mmHg 67%
    15:00 +12°C° 0 mm 12 mps 737 mmHg 66%
    16:00 +10°C° 0 mm 12 mps 738 mmHg 65%
    17:00 +9°C° 0 mm 12 mps 739 mmHg 65%
    18:00 +9°C° 0 mm 11 mps 740 mmHg 65%
    19:00 +9°C° 0 mm 10 mps 741 mmHg 65%
    20:00 +9°C° 0 mm 10 mps 742 mmHg 65%
    21:00 +10°C° 0 mm 9 mps 743 mmHg 67%
    22:00 +9°C° 0 mm 8 mps 743 mmHg 69%
    23:00 +9°C° 0 mm 7 mps 744 mmHg 71%

    25 September, Tuesday

    Time Temperature Precipitation Wind Pressure Humidity
    00:00 +8°C° 0 mm 7 mps 744 mmHg 73%
    01:00 +8°C° 0 mm 7 mps 745 mmHg 75%
    02:00 +7°C° 0 mm 6 mps 745 mmHg 78%
    03:00 +7°C° 0.1 mm 6 mps 746 mmHg 78%
    04:00 +7°C° 0.1 mm 6 mps 747 mmHg 77%
    05:00 +6°C° 0.1 mm 7 mps 747 mmHg 77%
    06:00 +6°C° 0 mm 7 mps 748 mmHg 75%
    07:00 +6°C° 0 mm 7 mps 749 mmHg 74%
    08:00 +6°C° 0 mm 8 mps 750 mmHg 72%
    09:00 +7°C° 0 mm 8 mps 750 mmHg 65%
    10:00 +9°C° 0 mm 8 mps 751 mmHg 59%
    11:00 +10°C° 0 mm 8 mps 752 mmHg 52%
    12:00 +10°C° 0.1 mm 8 mps 752 mmHg 51%
    13:00 +10°C° 0.1 mm 8 mps 752 mmHg 49%
    14:00 +11°C° 0.1 mm 8 mps 752 mmHg 47%
    15:00 +10°C° 0.1 mm 8 mps 753 mmHg 50%
    16:00 +9°C° 0.1 mm 7 mps 753 mmHg 53%
    17:00 +9°C° 0.1 mm 6 mps 753 mmHg 56%
    18:00 +8°C° 0 mm 6 mps 754 mmHg 59%
    19:00 +7°C° 0 mm 5 mps 754 mmHg 62%
    20:00 +6°C° 0 mm 5 mps 755 mmHg 64%
    21:00 +6°C° 0 mm 5 mps 755 mmHg 65%
    22:00 +6°C° 0 mm 5 mps 755 mmHg 65%
    23:00 +6°C° 0 mm 4 mps 755 mmHg 66%

    26 September, Wednesday

    Time Temperature Precipitation Wind Pressure Humidity
    00:00 +5°C° 0 mm 5 mps 755 mmHg 66%
    01:00 +5°C° 0 mm 5 mps 755 mmHg 67%
    02:00 +5°C° 0 mm 5 mps 755 mmHg 67%
    03:00 +5°C° 0 mm 5 mps 754 mmHg 68%
    04:00 +5°C° 0 mm 5 mps 754 mmHg 69%
    05:00 +5°C° 0 mm 5 mps 754 mmHg 71%
    06:00 +5°C° 0.7 mm 6 mps 753 mmHg 74%
    07:00 +5°C° 0.7 mm 7 mps 752 mmHg 78%
    08:00 +5°C° 0.7 mm 7 mps 752 mmHg 82%
    09:00 +6°C° 0.4 mm 7 mps 751 mmHg 81%
    10:00 +6°C° 0.4 mm 7 mps 751 mmHg 81%
    11:00 +8°C° 0.4 mm 7 mps 751 mmHg 80%
    12:00 +8°C° 0.2 mm 6 mps 751 mmHg 76%
    13:00 +9°C° 0.2 mm 6 mps 751 mmHg 72%
    14:00 +9°C° 0.2 mm 6 mps 751 mmHg 68%
    15:00 +9°C° 0.1 mm 6 mps 752 mmHg 69%
    16:00 +8°C° 0.1 mm 6 mps 752 mmHg 70%
    17:00 +8°C° 0.1 mm 5 mps 753 mmHg 72%
    18:00 +7°C° 0 mm 5 mps 754 mmHg 75%
    19:00 +6°C° 0 mm 5 mps 754 mmHg 77%
    20:00 +6°C° 0 mm 4 mps 755 mmHg 80%
    21:00 +6°C° 0 mm 4 mps 756 mmHg 81%
    22:00 +6°C° 0 mm 4 mps 756 mmHg 81%
    23:00 +6°C° 0 mm 4 mps 757 mmHg 82%

    27 September, Thursday

    Time Temperature Precipitation Wind Pressure Humidity
    00:00 +5°C° 0 mm 3 mps 757 mmHg 84%
    01:00 +5°C° 0 mm 3 mps 757 mmHg 86%
    02:00 +6°C° 0 mm 2 mps 758 mmHg 88%
    03:00 +5°C° 0 mm 2 mps 758 mmHg 88%
    04:00 +5°C° 0 mm 2 mps 758 mmHg 89%
    05:00 +4°C° 0 mm 2 mps 758 mmHg 90%
    06:00 +5°C° 0 mm 2 mps 758 mmHg 85%
    07:00 +6°C° 0 mm 2 mps 758 mmHg 80%
    08:00 +7°C° 0 mm 2 mps 758 mmHg 75%
    09:00 +9°C° 0 mm 2 mps 758 mmHg 67%
    10:00 +11°C° 0 mm 3 mps 758 mmHg 58%
    11:00 +13°C° 0 mm 4 mps 758 mmHg 50%
    12:00 +13°C° 0 mm 4 mps 757 mmHg 49%
    13:00 +14°C° 0 mm 5 mps 757 mmHg 48%
    14:00 +15°C° 0 mm 5 mps 756 mmHg 47%
    15:00 +14°C° 0 mm 4 mps 756 mmHg 52%
    16:00 +14°C° 0 mm 4 mps 755 mmHg 57%
    17:00 +13°C° 0 mm 3 mps 755 mmHg 63%
    18:00 +13°C° 0 mm 4 mps 755 mmHg 66%
    19:00 +12°C° 0 mm 4 mps 754 mmHg 70%
    20:00 +11°C° 0 mm 4 mps 754 mmHg 74%
    21:00 +11°C° 0.1 mm 4 mps 754 mmHg 74%
    22:00 +11°C° 0.1 mm 4 mps 754 mmHg 75%
    23:00 +10°C° 0.1 mm 5 mps 753 mmHg 76%
    Show more